EW8626 Weather Reports


time (UTC)temp
F
wind
direction
speed
knots
gust
knots
rain 1hr
in
rain 24hr
in
rain mn
in
humidity
%
barometer
mb
20260503184528 59 154 0.9 7.8 0.00 0.00 0.00 40 1013.3
20260503183034 59 170 0.9 10.4 0.00 0.00 0.00 42 1013.4
20260503181540 59 146 2.6 11.3 0.00 0.00 0.00 38 1013.6
20260503180022 60 183 0.0 10.4 0.00 0.00 0.00 42 1013.7
20260503174520 59 164 1.7 9.6 0.00 0.00 0.00 39 1013.9
20260503173037 59 274 0.9 8.7 0.00 0.00 0.00 42 1014.0
20260503171514 58 183 0.0 11.3 0.00 0.00 0.00 43 1014.3
20260503150103 53 141 0.9 10.4 0.00 0.00 0.00 50 1016.0
20260503100106 37 43 0.0 0.0 0.00 0.00 0.00 79 1014.8
20260503081548 35 7 0.0 0.0 0.00 0.00 0.00 92 1014.8
20260503071546 35 7 0.0 0.0 0.00 0.00 0.00 92 1014.7
20260503054535 35 7 0.0 0.0 0.00 0.00 0.00 92 1015.2
20260503053039 35 7 0.0 0.0 0.00 0.00 0.00 91 1015.3
20260503051534 35 7 0.0 0.0 0.00 0.00 0.00 91 1015.2
20260503050034 35 7 0.0 0.0 0.00 0.00 0.00 90 1015.1
20260503044603 36 7 0.0 0.0 0.00 0.00 0.00 89 1015.1
20260503043028 36 7 0.0 0.0 0.00 0.00 0.00 88 1015.2
20260503041527 36 7 0.0 0.0 0.00 0.00 0.00 87 1015.1
20260503040023 37 7 0.0 0.0 0.00 0.00 0.00 87 1015.2
20260503034523 37 7 0.0 0.0 0.00 0.00 0.00 84 1015.3
20260503033024 37 7 0.0 0.0 0.00 0.00 0.00 85 1015.3
20260503031522 38 7 0.0 0.0 0.00 0.00 0.00 84 1015.3
20260503030020 39 7 0.0 0.0 0.00 0.00 0.00 82 1015.3
20260503024521 39 7 0.0 0.0 0.00 0.00 0.00 80 1015.2
20260503023019 40 7 0.0 0.0 0.00 0.00 0.00 80 1015.1
20260503021523 41 7 0.0 0.0 0.00 0.00 0.00 77 1015.1
20260503020031 42 7 0.0 0.0 0.00 0.00 0.00 75 1014.9
20260503014517 43 7 0.0 0.0 0.00 0.00 0.00 70 1014.8
20260503013017 44 7 0.0 0.0 0.00 0.00 0.00 67 1014.6
20260503011516 45 7 0.0 0.0 0.00 0.00 0.00 57 1014.5
20260503010016 46 7 0.0 0.0 0.00 0.00 0.00 58 1014.4
20260503004515 48 7 0.0 0.0 0.00 0.00 0.00 57 1014.2
20260503003027 48 6 0.0 0.9 0.00 0.00 0.00 54 1014.1
20260503001514 49 8 0.0 0.9 0.00 0.00 0.00 50 1014.0
20260503000024 50 10 0.0 5.2 0.00 0.00 0.00 50 1013.9
20260502234515 50 349 0.0 0.0 0.00 0.00 0.00 47 1013.7
20260502233013 51 360 0.0 6.1 0.00 0.00 0.00 45 1013.6
20260502231512 52 2 0.9 9.6 0.00 0.00 0.00 43 1013.6
20260502230011 51 315 0.9 7.8 0.00 0.00 0.00 45 1013.6
20260502224511 51 312 0.9 4.3 0.00 0.00 0.00 44 1013.6
20260502223029 54 5 0.9 8.7 0.00 0.00 0.00 46 1013.5
20260502221509 53 305 0.0 9.6 0.00 0.00 0.00 43 1013.4
20260502220009 54 330 0.9 5.2 0.00 0.00 0.00 42 1013.3
20260502214509 53 324 0.0 4.3 0.00 0.00 0.00 43 1013.2
20260502213009 54 303 0.9 3.5 0.00 0.00 0.00 43 1013.2
20260502211507 53 358 0.9 6.1 0.00 0.00 0.00 45 1013.2
20260502210008 53 2 0.9 7.0 0.00 0.00 0.00 44 1013.2
20260502204508 52 348 0.0 3.5 0.00 0.00 0.00 45 1013.2
20260502203006 53 332 0.9 5.2 0.00 0.00 0.00 44 1013.3
20260502201505 53 10 1.7 10.4 0.00 0.00 0.00 44 1013.5
20260502200005 53 2 0.9 5.2 0.00 0.00 0.00 45 1013.5
20260502194510 53 325 0.9 6.1 0.00 0.00 0.00 43 1013.6
20260502193004 52 331 0.9 7.8 0.00 0.00 0.00 43 1013.6
20260502191503 52 357 0.9 6.1 0.00 0.00 0.00 45 1013.7
20260502190003 54 310 0.9 11.3 0.00 0.00 0.00 46 1013.9